| time (UTC) | temp C | wind direction | speed KPH | gust KPH | rain 1hr cm | rain 24hr cm | rain mn cm | humidity % | barometer mb |
| 20260503184437 | 18 | 76 | 3.2 | 3.2 | 0.00 | 0.00 | 0.00 | 35 | 1008.8 |
| 20260503183933 | 17 | 140 | 3.2 | 4.8 | 0.00 | 0.00 | 0.00 | 36 | 1008.8 |
| 20260503183430 | 17 | 324 | 4.8 | 8.0 | 0.00 | 0.00 | 0.00 | 35 | 1009.0 |
| 20260503182927 | 17 | 5 | 3.2 | 4.8 | 0.00 | 0.00 | 0.00 | 35 | 1009.2 |
| 20260503182426 | 17 | 210 | 1.6 | 3.2 | 0.00 | 0.00 | 0.00 | 35 | 1009.2 |
| 20260503181923 | 17 | 145 | 3.2 | 4.8 | 0.00 | 0.00 | 0.00 | 35 | 1009.1 |
| 20260503181420 | 17 | 353 | 4.8 | 11.3 | 0.00 | 0.00 | 0.00 | 35 | 1009.3 |
| 20260503180916 | 17 | 288 | 1.6 | 1.6 | 0.00 | 0.00 | 0.00 | 36 | 1009.4 |
| 20260503180414 | 17 | 103 | 3.2 | 4.8 | 0.00 | 0.00 | 0.00 | 37 | 1009.4 |
| 20260503175910 | 16 | 100 | 1.6 | 3.2 | 0.00 | 0.00 | 0.00 | 38 | 1009.7 |
| 20260503175409 | 16 | 39 | 1.6 | 3.2 | 0.00 | 0.00 | 0.00 | 38 | 1009.7 |
| 20260503174904 | 17 | 171 | 1.6 | 3.2 | 0.00 | 0.00 | 0.00 | 36 | 1009.7 |
| 20260503174402 | 17 | 172 | 4.8 | 4.8 | 0.00 | 0.00 | 0.00 | 36 | 1009.9 |
| 20260503173857 | 17 | 23 | 3.2 | 4.8 | 0.00 | 0.00 | 0.00 | 37 | 1010.1 |
| 20260503173353 | 18 | 211 | 1.6 | 1.6 | 0.00 | 0.00 | 0.00 | 35 | 1009.7 |
| 20260503172850 | 17 | 266 | 3.2 | 4.8 | 0.00 | 0.00 | 0.00 | 38 | 1009.8 |
| 20260503172348 | 17 | 166 | 1.6 | 3.2 | 0.00 | 0.00 | 0.00 | 37 | 1010.2 |
| 20260503171844 | 17 | 316 | 4.8 | 8.0 | 0.00 | 0.00 | 0.00 | 37 | 1010.1 |
| 20260503171341 | 16 | 308 | 4.8 | 8.0 | 0.00 | 0.00 | 0.00 | 40 | 1010.3 |
| 20260503170838 | 16 | 355 | 1.6 | 3.2 | 0.00 | 0.00 | 0.00 | 38 | 1010.4 |
| 20260503170334 | 16 | 73 | 4.8 | 4.8 | 0.00 | 0.00 | 0.00 | 41 | 1010.6 |
| 20260503150727 | 12 | 223 | 0.0 | 0.0 | 0.00 | 0.00 | 0.00 | 46 | 1011.5 |
| 20260503150223 | 11 | 341 | 4.8 | 4.8 | 0.00 | 0.00 | 0.00 | 44 | 1011.7 |
| 20260503140147 | 14 | 353 | 1.6 | 1.6 | 0.00 | 0.00 | 0.00 | 41 | 1011.7 |
| 20260503131117 | 10 | 170 | 1.6 | 1.6 | 0.00 | 0.00 | 0.00 | 47 | 1011.9 |
| 20260503130615 | 10 | 321 | 3.2 | 3.2 | 0.00 | 0.00 | 0.00 | 48 | 1011.9 |
| 20260503130112 | 10 | 304 | 1.6 | 1.6 | 0.00 | 0.00 | 0.00 | 49 | 1012.1 |
| 20260503110505 | 4 | 300 | 0.0 | 0.0 | 0.00 | 0.00 | 0.00 | 62 | 1011.8 |
| 20260503090350 | 2 | 306 | 0.0 | 0.0 | 0.00 | 0.00 | 0.00 | 65 | 1012.5 |
| 20260503081318 | 1 | 257 | 0.0 | 0.0 | 0.00 | 0.00 | 0.00 | 71 | 1012.8 |
| 20260503080814 | 1 | 255 | 0.0 | 0.0 | 0.00 | 0.00 | 0.00 | 72 | 1013.0 |
| 20260503080311 | 1 | 267 | 0.0 | 0.0 | 0.00 | 0.00 | 0.00 | 71 | 1012.9 |
| 20260503072748 | 1 | 247 | 0.0 | 0.0 | 0.00 | 0.00 | 0.00 | 70 | 1012.9 |
| 20260503072245 | 1 | 248 | 0.0 | 0.0 | 0.00 | 0.00 | 0.00 | 69 | 1013.1 |
| 20260503071741 | 2 | 245 | 0.0 | 0.0 | 0.00 | 0.00 | 0.00 | 70 | 1012.8 |
| 20260503071238 | 2 | 306 | 0.0 | 0.0 | 0.00 | 0.00 | 0.00 | 70 | 1013.0 |
| 20260503070734 | 2 | 261 | 0.0 | 0.0 | 0.00 | 0.00 | 0.00 | 69 | 1013.0 |
| 20260503070232 | 2 | 261 | 0.0 | 0.0 | 0.00 | 0.00 | 0.00 | 68 | 1013.2 |
| 20260503060151 | 1 | 241 | 0.0 | 0.0 | 0.00 | 0.00 | 0.00 | 78 | 1013.4 |
| 20260503054638 | 1 | 236 | 0.0 | 0.0 | 0.00 | 0.00 | 0.00 | 79 | 1013.4 |
| 20260503054136 | 1 | 237 | 0.0 | 0.0 | 0.00 | 0.00 | 0.00 | 77 | 1013.6 |
| 20260503053633 | 1 | 242 | 0.0 | 0.0 | 0.00 | 0.00 | 0.00 | 78 | 1014.0 |
| 20260503053132 | 1 | 244 | 0.0 | 0.0 | 0.00 | 0.00 | 0.00 | 79 | 1013.6 |
| 20260503052628 | 1 | 245 | 0.0 | 0.0 | 0.00 | 0.00 | 0.00 | 78 | 1013.8 |
| 20260503052124 | 1 | 220 | 0.0 | 0.0 | 0.00 | 0.00 | 0.00 | 80 | 1014.1 |
| 20260503051620 | 1 | 256 | 0.0 | 0.0 | 0.00 | 0.00 | 0.00 | 81 | 1014.0 |
| 20260503051118 | 1 | 256 | 0.0 | 0.0 | 0.00 | 0.00 | 0.00 | 78 | 1014.3 |
| 20260503050614 | 1 | 271 | 0.0 | 0.0 | 0.00 | 0.00 | 0.00 | 79 | 1014.1 |
| 20260503050111 | 1 | 250 | 0.0 | 0.0 | 0.00 | 0.00 | 0.00 | 80 | 1014.0 |
| 20260503045608 | 1 | 247 | 0.0 | 0.0 | 0.00 | 0.00 | 0.00 | 82 | 1014.1 |
| 20260503045105 | 1 | 245 | 0.0 | 0.0 | 0.00 | 0.00 | 0.00 | 83 | 1014.1 |
| 20260503044602 | 1 | 272 | 0.0 | 0.0 | 0.00 | 0.00 | 0.00 | 82 | 1014.1 |
| 20260503044100 | 1 | 272 | 0.0 | 0.0 | 0.00 | 0.00 | 0.00 | 82 | 1013.9 |
| 20260503043555 | 1 | 249 | 0.0 | 0.0 | 0.00 | 0.00 | 0.00 | 81 | 1013.8 |
| 20260503043052 | 1 | 261 | 0.0 | 0.0 | 0.00 | 0.00 | 0.00 | 82 | 1014.2 |
| 20260503042549 | 1 | 232 | 0.0 | 0.0 | 0.00 | 0.00 | 0.00 | 82 | 1014.3 |
| 20260503042045 | 1 | 224 | 0.0 | 0.0 | 0.00 | 0.00 | 0.00 | 82 | 1014.1 |
| 20260503041543 | 1 | 235 | 0.0 | 0.0 | 0.00 | 0.00 | 0.00 | 81 | 1014.2 |
| 20260503041040 | 1 | 235 | 0.0 | 0.0 | 0.00 | 0.00 | 0.00 | 79 | 1014.0 |
| 20260503040537 | 1 | 236 | 0.0 | 0.0 | 0.00 | 0.00 | 0.00 | 80 | 1014.2 |
| 20260503040034 | 1 | 243 | 0.0 | 0.0 | 0.00 | 0.00 | 0.00 | 80 | 1014.2 |
| 20260503035532 | 1 | 244 | 0.0 | 0.0 | 0.00 | 0.00 | 0.00 | 79 | 1014.1 |
| 20260503035029 | 1 | 243 | 0.0 | 0.0 | 0.00 | 0.00 | 0.00 | 80 | 1014.2 |
| 20260503034526 | 1 | 244 | 0.0 | 0.0 | 0.00 | 0.00 | 0.00 | 80 | 1014.5 |
| 20260503034023 | 1 | 236 | 0.0 | 0.0 | 0.00 | 0.00 | 0.00 | 80 | 1014.2 |
| 20260503033520 | 1 | 239 | 0.0 | 0.0 | 0.00 | 0.00 | 0.00 | 80 | 1014.2 |
| 20260503033018 | 1 | 239 | 0.0 | 0.0 | 0.00 | 0.00 | 0.00 | 79 | 1014.2 |
| 20260503032516 | 1 | 239 | 0.0 | 0.0 | 0.00 | 0.00 | 0.00 | 78 | 1014.4 |
| 20260503032014 | 1 | 239 | 0.0 | 0.0 | 0.00 | 0.00 | 0.00 | 79 | 1014.5 |
| 20260503031511 | 1 | 240 | 0.0 | 0.0 | 0.00 | 0.00 | 0.00 | 79 | 1014.4 |
| 20260503031008 | 1 | 240 | 0.0 | 0.0 | 0.00 | 0.00 | 0.00 | 79 | 1014.5 |
| 20260503030504 | 1 | 230 | 0.0 | 0.0 | 0.00 | 0.00 | 0.00 | 76 | 1014.3 |
| 20260503030002 | 2 | 222 | 0.0 | 0.0 | 0.00 | 0.00 | 0.00 | 76 | 1014.4 |
| 20260503025458 | 2 | 222 | 0.0 | 0.0 | 0.00 | 0.00 | 0.00 | 76 | 1014.5 |
| 20260503024956 | 2 | 222 | 0.0 | 0.0 | 0.00 | 0.00 | 0.00 | 77 | 1014.5 |
| 20260503024452 | 2 | 222 | 0.0 | 0.0 | 0.00 | 0.00 | 0.00 | 78 | 1014.3 |
| 20260503023949 | 2 | 222 | 0.0 | 0.0 | 0.00 | 0.00 | 0.00 | 78 | 1014.4 |
| 20260503023446 | 2 | 223 | 0.0 | 0.0 | 0.00 | 0.00 | 0.00 | 78 | 1014.4 |
| 20260503022943 | 2 | 223 | 0.0 | 0.0 | 0.00 | 0.00 | 0.00 | 76 | 1014.7 |
| 20260503022438 | 2 | 223 | 0.0 | 0.0 | 0.00 | 0.00 | 0.00 | 77 | 1014.2 |
| 20260503021934 | 2 | 223 | 0.0 | 0.0 | 0.00 | 0.00 | 0.00 | 77 | 1014.6 |
| 20260503021430 | 2 | 224 | 0.0 | 0.0 | 0.00 | 0.00 | 0.00 | 76 | 1014.5 |
| 20260503020928 | 2 | 226 | 0.0 | 0.0 | 0.00 | 0.00 | 0.00 | 75 | 1014.5 |
| 20260503020426 | 3 | 226 | 0.0 | 0.0 | 0.00 | 0.00 | 0.00 | 75 | 1014.5 |
| 20260503015922 | 3 | 226 | 0.0 | 0.0 | 0.00 | 0.00 | 0.00 | 73 | 1014.4 |
| 20260503015419 | 3 | 226 | 0.0 | 0.0 | 0.00 | 0.00 | 0.00 | 69 | 1014.5 |
| 20260503014915 | 3 | 227 | 0.0 | 0.0 | 0.00 | 0.00 | 0.00 | 67 | 1014.4 |
| 20260503014412 | 3 | 227 | 0.0 | 0.0 | 0.00 | 0.00 | 0.00 | 66 | 1014.3 |
| 20260503013910 | 3 | 227 | 0.0 | 0.0 | 0.00 | 0.00 | 0.00 | 65 | 1014.4 |
| 20260503013407 | 4 | 227 | 0.0 | 0.0 | 0.00 | 0.00 | 0.00 | 63 | 1014.3 |
| 20260503012904 | 4 | 227 | 0.0 | 0.0 | 0.00 | 0.00 | 0.00 | 62 | 1014.2 |
| 20260503012402 | 5 | 227 | 0.0 | 0.0 | 0.00 | 0.00 | 0.00 | 62 | 1014.2 |
| 20260503011858 | 5 | 227 | 0.0 | 0.0 | 0.00 | 0.00 | 0.00 | 60 | 1014.2 |
| 20260503011355 | 5 | 227 | 0.0 | 0.0 | 0.00 | 0.00 | 0.00 | 58 | 1014.0 |
| 20260503010851 | 5 | 227 | 0.0 | 0.0 | 0.00 | 0.00 | 0.00 | 58 | 1014.2 |
| 20260503010348 | 5 | 227 | 0.0 | 0.0 | 0.00 | 0.00 | 0.00 | 58 | 1014.1 |
| 20260503005845 | 6 | 227 | 0.0 | 0.0 | 0.00 | 0.00 | 0.00 | 57 | 1014.0 |
| 20260503005343 | 6 | 227 | 0.0 | 0.0 | 0.00 | 0.00 | 0.00 | 54 | 1014.0 |
| 20260503004839 | 6 | 227 | 0.0 | 0.0 | 0.00 | 0.00 | 0.00 | 54 | 1014.3 |
| 20260503004336 | 6 | 227 | 0.0 | 0.0 | 0.00 | 0.00 | 0.00 | 52 | 1014.0 |
| 20260503003834 | 7 | 229 | 0.0 | 0.0 | 0.00 | 0.00 | 0.00 | 50 | 1013.8 |
| 20260503003331 | 7 | 229 | 0.0 | 0.0 | 0.00 | 0.00 | 0.00 | 49 | 1014.0 |
| 20260503002827 | 7 | 274 | 0.0 | 0.0 | 0.00 | 0.00 | 0.00 | 48 | 1014.2 |
| 20260503002325 | 7 | 205 | 0.0 | 0.0 | 0.00 | 0.00 | 0.00 | 49 | 1014.1 |
| 20260503001821 | 7 | 281 | 0.0 | 0.0 | 0.00 | 0.00 | 0.00 | 46 | 1013.9 |
| 20260503001317 | 7 | 171 | 1.6 | 1.6 | 0.00 | 0.00 | 0.00 | 48 | 1013.9 |
| 20260503000815 | 7 | 253 | 0.0 | 0.0 | 0.00 | 0.00 | 0.00 | 48 | 1013.8 |
| 20260503000313 | 7 | 248 | 0.0 | 0.0 | 0.00 | 0.00 | 0.00 | 47 | 1013.8 |
| 20260502235809 | 8 | 187 | 0.0 | 0.0 | 0.00 | 0.00 | 0.00 | 48 | 1013.9 |
| 20260502235307 | 8 | 237 | 0.0 | 0.0 | 0.00 | 0.00 | 0.00 | 47 | 1013.9 |
| 20260502234803 | 8 | 236 | 0.0 | 0.0 | 0.00 | 0.00 | 0.00 | 49 | 1013.9 |
| 20260502234300 | 8 | 269 | 0.0 | 0.0 | 0.00 | 0.00 | 0.00 | 48 | 1013.8 |
| 20260502233756 | 8 | 307 | 0.0 | 0.0 | 0.00 | 0.00 | 0.00 | 49 | 1013.9 |
| 20260502233253 | 8 | 299 | 0.0 | 0.0 | 0.00 | 0.00 | 0.00 | 46 | 1014.0 |
| 20260502232749 | 8 | 263 | 0.0 | 0.0 | 0.00 | 0.00 | 0.00 | 49 | 1014.1 |
| 20260502232246 | 8 | 188 | 0.0 | 0.0 | 0.00 | 0.00 | 0.00 | 47 | 1014.0 |
| 20260502231743 | 8 | 284 | 0.0 | 0.0 | 0.00 | 0.00 | 0.00 | 49 | 1014.0 |
| 20260502231241 | 8 | 289 | 0.0 | 1.6 | 0.00 | 0.00 | 0.00 | 48 | 1014.3 |
| 20260502230739 | 8 | 210 | 0.0 | 0.0 | 0.00 | 0.00 | 0.00 | 48 | 1014.0 |
| 20260502230237 | 8 | 276 | 0.0 | 0.0 | 0.00 | 0.00 | 0.00 | 46 | 1014.3 |
| 20260502225733 | 8 | 322 | 1.6 | 1.6 | 0.00 | 0.00 | 0.00 | 47 | 1014.3 |
| 20260502225230 | 8 | 296 | 0.0 | 1.6 | 0.00 | 0.00 | 0.00 | 48 | 1014.1 |
| 20260502224726 | 8 | 278 | 0.0 | 1.6 | 0.00 | 0.00 | 0.00 | 47 | 1014.2 |
| 20260502224223 | 8 | 150 | 1.6 | 3.2 | 0.00 | 0.00 | 0.00 | 45 | 1014.1 |
| 20260502223721 | 8 | 322 | 0.0 | 1.6 | 0.00 | 0.00 | 0.00 | 44 | 1014.3 |
| 20260502223218 | 8 | 315 | 1.6 | 1.6 | 0.00 | 0.00 | 0.00 | 45 | 1014.2 |
| 20260502222716 | 8 | 139 | 0.0 | 0.0 | 0.00 | 0.00 | 0.00 | 45 | 1014.3 |
| 20260502222212 | 8 | 290 | 0.0 | 1.6 | 0.00 | 0.00 | 0.00 | 44 | 1014.3 |
| 20260502221709 | 8 | 291 | 0.0 | 0.0 | 0.00 | 0.00 | 0.00 | 45 | 1014.3 |
| 20260502221205 | 8 | 250 | 0.0 | 0.0 | 0.00 | 0.00 | 0.00 | 44 | 1014.2 |
| 20260502220701 | 8 | 158 | 1.6 | 3.2 | 0.00 | 0.00 | 0.00 | 45 | 1014.2 |
| 20260502220158 | 8 | 55 | 0.0 | 1.6 | 0.00 | 0.00 | 0.00 | 44 | 1014.4 |
| 20260502215655 | 8 | 200 | 0.0 | 1.6 | 0.00 | 0.00 | 0.00 | 43 | 1014.4 |
| 20260502215152 | 8 | 60 | 0.0 | 0.0 | 0.00 | 0.00 | 0.00 | 43 | 1014.1 |
| 20260502214649 | 8 | 262 | 0.0 | 0.0 | 0.00 | 0.00 | 0.00 | 44 | 1014.4 |
| 20260502214146 | 8 | 299 | 0.0 | 1.6 | 0.00 | 0.00 | 0.00 | 45 | 1014.3 |
| 20260502213643 | 8 | 159 | 3.2 | 3.2 | 0.00 | 0.00 | 0.00 | 43 | 1014.5 |
| 20260502213140 | 8 | 290 | 1.6 | 3.2 | 0.00 | 0.00 | 0.00 | 42 | 1014.3 |
| 20260502212639 | 9 | 123 | 0.0 | 1.6 | 0.00 | 0.00 | 0.00 | 41 | 1014.4 |
| 20260502212137 | 9 | 155 | 1.6 | 1.6 | 0.00 | 0.00 | 0.00 | 43 | 1014.4 |
| 20260502211632 | 8 | 44 | 0.0 | 1.6 | 0.00 | 0.00 | 0.00 | 43 | 1014.0 |
| 20260502211130 | 9 | 304 | 1.6 | 1.6 | 0.00 | 0.00 | 0.00 | 42 | 1014.3 |
| 20260502210627 | 9 | 190 | 0.0 | 0.0 | 0.00 | 0.00 | 0.00 | 44 | 1014.6 |
| 20260502210124 | 8 | 299 | 0.0 | 0.0 | 0.00 | 0.00 | 0.00 | 44 | 1014.4 |
| 20260502205621 | 8 | 194 | 0.0 | 0.0 | 0.00 | 0.00 | 0.00 | 43 | 1014.3 |
| 20260502205117 | 9 | 105 | 0.0 | 0.0 | 0.00 | 0.00 | 0.00 | 42 | 1014.2 |
| 20260502204614 | 9 | 192 | 0.0 | 0.0 | 0.00 | 0.00 | 0.00 | 42 | 1014.6 |
| 20260502204112 | 9 | 326 | 1.6 | 1.6 | 0.00 | 0.00 | 0.00 | 42 | 1014.5 |
| 20260502203609 | 8 | 329 | 1.6 | 1.6 | 0.00 | 0.00 | 0.00 | 43 | 1014.4 |
| 20260502203106 | 8 | 177 | 0.0 | 0.0 | 0.00 | 0.00 | 0.00 | 42 | 1014.6 |
| 20260502202602 | 8 | 165 | 1.6 | 1.6 | 0.00 | 0.00 | 0.00 | 42 | 1014.7 |
| 20260502202100 | 8 | 87 | 1.6 | 1.6 | 0.00 | 0.00 | 0.00 | 44 | 1014.8 |
| 20260502201556 | 8 | 181 | 0.0 | 0.0 | 0.00 | 0.00 | 0.00 | 43 | 1014.8 |
| 20260502201053 | 8 | 330 | 0.0 | 1.6 | 0.00 | 0.00 | 0.00 | 44 | 1015.0 |
| 20260502200548 | 8 | 150 | 3.2 | 3.2 | 0.00 | 0.00 | 0.00 | 42 | 1014.9 |
| 20260502200047 | 9 | 143 | 0.0 | 1.6 | 0.00 | 0.00 | 0.00 | 41 | 1014.8 |
| 20260502195544 | 10 | 129 | 0.0 | 1.6 | 0.00 | 0.00 | 0.00 | 41 | 1015.1 |
| 20260502195040 | 9 | 252 | 0.0 | 1.6 | 0.00 | 0.00 | 0.00 | 41 | 1014.8 |
| 20260502194537 | 9 | 240 | 0.0 | 1.6 | 0.00 | 0.00 | 0.00 | 42 | 1015.0 |
| 20260502194033 | 9 | 257 | 3.2 | 3.2 | 0.00 | 0.00 | 0.00 | 40 | 1015.0 |
| 20260502193530 | 9 | 137 | 3.2 | 3.2 | 0.00 | 0.00 | 0.00 | 39 | 1015.1 |
| 20260502193027 | 10 | 116 | 0.0 | 1.6 | 0.00 | 0.00 | 0.00 | 38 | 1015.1 |
| 20260502192522 | 8 | 190 | 0.0 | 1.6 | 0.00 | 0.00 | 0.00 | 45 | 1015.1 |
| 20260502192020 | 8 | 318 | 1.6 | 1.6 | 0.00 | 0.00 | 0.00 | 42 | 1015.2 |
| 20260502191517 | 9 | 184 | 0.0 | 0.0 | 0.00 | 0.00 | 0.00 | 42 | 1015.4 |
| 20260502191015 | 10 | 174 | 0.0 | 1.6 | 0.00 | 0.00 | 0.00 | 41 | 1015.3 |
| 20260502190512 | 9 | 294 | 3.2 | 8.0 | 0.00 | 0.00 | 0.00 | 42 | 1015.4 |
| 20260502190009 | 8 | 247 | 0.0 | 0.0 | 0.00 | 0.00 | 0.00 | 41 | 1015.6 |
| 20260502185504 | 9 | 341 | 1.6 | 1.6 | 0.00 | 0.00 | 0.00 | 41 | 1015.1 |
| 20260502185001 | 10 | 294 | 0.0 | 1.6 | 0.00 | 0.00 | 0.00 | 38 | 1015.4 |